Regional Weather Roundup
Issued by NWS

Home | Current Version | Previous Version | Graphics & Text | Print | Product List | Glossary On
Versions: 1 2 3 4 5 6 7 8 9 10 11 12 13 14 15 16 17 18 19 20 21 22 23 24 25 26 27 28 29 30 31 32 33 34 35 36 37 38 39 40 41 42 43 44 45 46 47 48 49 50
000
ASUS43 KFSD 240402
RWRSD

WEATHER ROUNDUP FOR SOUTH DAKOTA
NATIONAL WEATHER SERVICE SIOUX FALLS SD
1100 PM CDT WED APR 23 2014

NOTE: "FAIR" INDICATES FEW OR NO CLOUDS BELOW 12,000 FEET WITH NO
SIGNIFICANT WEATHER AND/OR OBSTRUCTIONS TO VISIBILITY.


SDZ001>005-009-010-012>017-240500-
NORTHWEST AND NORTH CENTRAL SOUTH DAKOTA

CITY           SKY/WX    TMP DP  RH WIND       PRES   REMARKS
BUFFALO          N/A     44  27  51 W12       29.69R
FAITH            N/A     44  34  67 W9        29.75R
MOBRIDGE       MOCLDY    44  37  76 NE6       29.69R
$$

SDZ012>016-024>037-041>051-057-063-072>074-240500-
SOUTHWEST AND SOUTH CENTRAL SOUTH DAKOTA

CITY           SKY/WX    TMP DP  RH WIND       PRES   REMARKS
RAPID CTY ARPT MOCLDY    43  31  62 N13       29.78R
PIERRE         MOCLDY    50  37  61 NW7       29.72R
CUSTER         CLOUDY    40  23  50 NW8       29.82S
ELLSWORTH AFB  MOCLDY    46  30  54 N6        29.78S
PHILIP         CLOUDY    50  35  56 SE5       29.77R
PINE RIDGE     CLOUDY    50  36  58 CALM      29.81R
WINNER         FAIR      54  37  52 NW14      29.72R
$$

SDZ004>011-016>023-039-040-240500-
NORTHEAST SOUTH DAKOTA

CITY           SKY/WX    TMP DP  RH WIND       PRES   REMARKS
ABERDEEN       CLOUDY    45  40  82 SE7       29.72R
WATERTOWN      CLOUDY    44  38  79 SE13G22   29.72R
SISSETON         N/A     41  38  89 SE15      29.76R
$$

SDZ017-020-022-023-036>040-048>070-240500-
SOUTHEAST SOUTH DAKOTA

CITY           SKY/WX    TMP DP  RH WIND       PRES   REMARKS
SIOUX FALLS    CLOUDY    47  39  74 E17G26    29.69F
HURON          MOCLDY    53  40  61 SE10      29.66R
CHAMBERLAIN      N/A     56  43  61 N18G24    29.67R
MITCHELL       CLOUDY    54  42  64 SE21      29.63R
YANKTON        CLOUDY    52  45  76 E10G16    29.65R
$$

ABBREVIATIONS USED IN REMARKS
   TC - TEMPERATURE IN CELSIUS
  WCI - WIND CHILL INDEX
   HX - HEAT INDEX
  VSB - VISIBILITY




USA.gov is the U.S. government's official web portal to all federal, state and local government web resources and services.